User: anonymous   Login
Location: SAPM � Hemmingford
(45.0500°N, 73.5833°W)
Time: 05:31:37
(UTC-05:00)
Language:

Cosmos 1674 Rocket - Orbit

View from above orbital plane
View from above orbital plane
View from above satellite
View from above satellite

Ground track
Ground track

The orbit data is extracted from the following two-line orbital elements,

1 15945U 85069B   14330.84450115  .00000605  00000-0  70333-4 0  8272
2 15945 082.5276 286.9161 0021572 120.4903 300.7236 14.83494056582634
Epoch (UTC): 26 November 2014 20:16:04
Eccentricity: 0.0021572
inclination: 82.5276°
perigee height: 603 km
apogee height: 633 km
right ascension of ascending node: 286.9161°
argument of perigee: 120.4903°
revolutions per day: 14.83494056
mean anomaly at epoch: 300.7236°
orbit number at epoch: 58263

The dashed part of the orbit path shows where the satellite is in the earth's shadow,  

DLR